OBJECT V, 57185

Orbit data source: Space-Track

You're viewing an Uncataloged Satellite

Recently launched and/or uncataloged satellites may have evolving metadata. Metadata may include but not limited to: Owner, Maufacturer, Bus, Motor, and Mission.

OBJECT V, 57185 is a satellite in SSO that was launched on Tue, 27 Jun 2023 UTC via a SOYUZ-2-1B launch vehicle from the Vostochny Cosmodrome (VOSTO). Unknown objects in Earth's orbit typically refer to objects detected orbiting the Earth but have not yet been identified or cataloged. These objects could be anything from previously untracked satellites, spent rocket stages, debris from satellite collisions, or even natural meteoroids temporarily captured by Earth's gravity.

Loading next visibility...
Identifier
57185, 2023-091V
Orbit
SSO
Country
Flag of TBDTBD
Related business
None
Manufacturer
Unknown
Mission
Operational Commercial Technology
Bus & Motor
Unknown
Mass
Unknown
Launch date (UTC)
2023-06-27 (3 years ago)
Launch vehicle
SOYUZ-2-1B
Launch site
Vostochny Cosmodrome (VOSTO)
Object type
Unknown
Shape & HBR
Box, 0.1 m
Radar Cross Section
0.035 m², Small (<0.1 m²)

Expand to show TLE details & history
Last TLE update: 14 hours ago

TLE from 14 hours ago
0 OBJECT V
1 57185U 23091V   26105.91523659  .00011277  00000-0  31333-3 0  9999
2 57185  97.5108 175.1744 0005551 298.2326  61.8357 15.37032323155207
Epoch: 2026-04-15T21:57Z
TLE epoch observation values (Epoch: 2026-04-15T21:57:56.441Z)
Latitude
-0.00004°
Longitude
1.61895°
Altitude
456.212 km
Speed
7.64 km/s
True Right ascension
11h 40m 41s
True Declination
0° 00' 00"
Sunlit
Object was in full shadow at epoch
Visualization orbit readout
Latitude
Unknown
Longitude
Unknown
Altitude
Unknown
Speed
Unknown
Apparent Right ascension
Unknown
Apparent Declination
Unknown
Sunlit
N/A
Visualization observer readout
Local Sidereal Time
18:06:07
Azimuth
Unknown
Elevation
Unknown
Doppler factor
Unknown
Orbital elements
Apogee altitude
455.63 km
Perigee altitude
448.047 km
Semi-major axis
6,829.975 km
Eccentricity
0.00056
Inclination
97.5108°
RAAN
175.1744°
Arg. of periapsis
298.2326°
True anomaly
61.8918°
Mean anomaly
61.8357°
Eccentric anomaly
61.86375°
Mean motion
3.84516 °/min
Orbital period
93.62 mins
BSTAR
0.00031333
Loading maneuver chart data...
Computing Atmospheric mass density...
Loading historical data...
Loading historical data...
Loading historical data...
Loading historical data...
Loading historical data...
Loading historical data...
Loading historical data...

Documentation

Showing up to 5 results
|